This demonstration page uses our WeatherBlox Daily Observations layout. Learn more.

Left ArrowRight Arrow

39.95238, -75.16362

Hourly Observations for April 11, 2022

Temp ( °F °C ) Dew Point ( °F °C ) Humidity (%) Winds ( mph kmh ) Pressure ( in mb ) Visibility ( mi km ) Precip ( " mm )
12:54 am 00:54 Mostly Cloudy 43 6.1 25 -3.9 49 49 NW 10 17 30.06 1018 10 16 0.00 0.00
1:54 am 01:54 Partly Cloudy 45 7.2 25 -3.9 46 46 NNW 7 11 30.06 1018 10 16 0.00 0.00
2:54 am 02:54 Clear 41 5 24 -4.4 51 51 WNW 7 11 30.07 1018 10 16 0.00 0.00
3:54 am 03:54 Clear 41 5 25 -3.9 53 53 NW 6 9 30.09 1019 10 16 0.00 0.00
4:54 am 04:54 Clear 40 4.4 25 -3.9 55 55 WNW 6 9 30.11 1020 10 16 0.00 0.00
5:54 am 05:54 Clear 39 3.9 25 -3.9 57 57 WNW 5 7 30.14 1021 10 16 0.00 0.00
6:54 am 06:54 Sunny 37 2.8 26 -3.3 65 65 WNW 7 11 30.17 1022 10 16 0.00 0.00
7:54 am 07:54 Sunny 41 5 28 -2.2 60 60 NW 8 13 30.16 1022 10 16 0.00 0.00
8:54 am 08:54 Mostly Sunny 46 7.8 28 -2.2 50 50 NNW 7 11 30.16 1021 10 16 0.00 0.00
9:54 am 09:54 Mostly Sunny 49 9.4 27 -2.8 43 43 NNW 6 9 30.17 1022 10 16 0.00 0.00
10:54 am 10:54 Mostly Cloudy 52 11.1 28 -2.2 40 40 VRB 6 9 30.16 1022 10 16 0.00 0.00
11:54 am 11:54 Mostly Cloudy 53 11.7 29 -1.7 40 40 VRB 6 9 30.16 1021 10 16 0.00 0.00
12:54 pm 12:54 Mostly Cloudy 55 12.8 30 -1.1 38 38 VRB 7 11 30.15 1021 10 16 0.00 0.00
1:54 pm 13:54 Mostly Cloudy 56 13.3 31 -0.6 39 39 SSW 7 11 30.12 1020 10 16 0.00 0.00
2:54 pm 14:54 Mostly Cloudy 57 13.9 31 -0.6 37 37 S 8 13 30.09 1019 10 16 0.00 0.00
3:54 pm 15:54 Mostly Cloudy 60 15.6 34 1.1 38 38 SW 15 24 30.08 1019 10 16 0.00 0.00
4:54 pm 16:54 Mostly Cloudy 61 16.1 34 1.1 36 36 SSW 14 22 30.06 1018 10 16 0.00 0.00
5:54 pm 17:54 Mostly Cloudy 58 14.4 35 1.7 42 42 SSW 13 20 30.04 1017 10 16 0.00 0.00
6:54 pm 18:54 Mostly Cloudy 57 13.9 37 2.8 47 47 SSW 14 22 30.05 1018 10 16 0.00 0.00
7:54 pm 19:54 Mostly Cloudy 55 12.8 38 3.3 53 53 SSW 9 15 30.06 1018 10 16 0.00 0.00
8:54 pm 20:54 Mostly Cloudy 53 11.7 38 3.3 57 57 SSW 6 9 30.07 1018 10 16 0.00 0.00
9:54 pm 21:54 Mostly Cloudy 52 11.1 39 3.9 61 61 S 6 9 30.07 1018 10 16 0.00 0.00
10:54 pm 22:54 Partly Cloudy 51 10.6 37 2.8 59 59 SE 3 6 30.07 1018 10 16 0.00 0.00
11:54 pm 23:54 Mostly Cloudy 50 10 38 3.3 63 63 Calm 30.07 1018 10 16 0.00 0.00

Powered by AerisWeather